Location: Koza?ac?
(36.5500°N, 30.2167°E)
Time: 19:12:25
(UTC+00:00)

Daily predictions for brighter satellites

Satellite Brightness Start Highest point End
(mag) Time Altitude Azimuth Time Altitude Azimuth Time Altitude Azimuth
CZ-3B R/B 4.0 17:11:18 10° SW 17:15:55 75° NW 17:33:45 10° NE
Cosmos 375 4.5 17:34:55 10° SSW 17:39:15 55° ESE 17:42:58 10° NE
Cosmos 1500 Rocket 3.6 17:36:14 10° N 17:40:40 74° E 17:45:01 10° SSE
Cosmos 1190 Rocket 4.0 17:37:25 10° SSW 17:42:39 85° ESE 17:47:56 10° NNE
CRYOSAT 2 4.4 17:41:07 10° NNE 17:45:56 59° E 17:50:43 10° S
Cosmos 1536 3.9 17:43:35 10° NNE 17:46:56 26° ENE 17:50:14 10° SE
Cosmos 676 Rocket 4.1 17:45:35 10° S 17:50:44 58° ESE 17:55:57 10° NNE
Cosmos 2154 Rocket 4.2 17:47:12 10° SSE 17:53:10 51° E 17:59:13 10° NNE
BREEZE-M DEB (TANK) 3.9 17:52:22 10° NNW 17:54:41 24° NE 17:59:15 10° E
Cosmos 1437 Rocket 2.9 17:51:27 10° N 17:55:28 86° W 17:59:30 10° S
Cosmos 1805 Rocket 3.5 17:57:13 10° N 18:01:33 90° SSW 18:05:52 10° S
USA 281 4.3 17:56:54 10° NE 18:01:49 22° ESE 18:06:43 10° SSE
SJ-6B 4.0 17:58:04 10° S 18:01:50 43° W 18:05:40 10° NNW
USA 267 3.5 17:58:01 10° NE 18:04:16 47° SE 18:10:29 10° SSW
Cosmos 2237 Rocket 2.3 17:59:22 10° S 18:04:49 53° ESE 18:10:16 10° NNE
Cosmos 1763 Rocket 3.9 18:00:42 10° N 18:05:51 48° ENE 18:10:19 13° SE
CZ-4 R/B 3.7 18:04:55 10° SSW 18:08:06 22° W 18:11:15 10° NW
Resurs 01 Rocket 1.8 18:03:49 10° SSE 18:08:09 58° ENE 18:12:30 10° N
Resurs 1-3 4.3 18:04:44 10° S 18:09:00 53° W 18:13:17 10° NNW
OAO 3 Rocket 3.1 18:05:14 10° W 18:09:59 75° S 18:14:22 12° E
Sich 1 3.1 18:05:48 10° N 18:10:05 83° W 18:14:23 10° S
Meteor 1-11 Rocket 3.9 18:04:24 10° N 18:10:21 67° E 18:16:16 10° SSE
CARTOSAT-1 4.2 18:07:32 14° SE 18:10:54 39° ENE 18:14:54 10° N
IRIDIUM 104 4.4 18:05:56 10° SSE 18:11:03 63° E 18:16:13 10° N
Cosmos 1633 Rocket 4.0 18:07:30 10° NNE 18:11:24 31° ENE 18:14:10 16° SE
COSMOS 2428 3.8 18:05:58 10° SW 18:11:28 48° WNW 18:17:01 10° N
Meteor 1-19 Rocket 4.5 18:07:37 10° SSE 18:12:57 47° E 18:18:10 10° NNE
Cosmos 1378 3.0 18:10:01 10° S 18:13:34 86° W 18:17:10 10° N
Meteor 1-27 Rocket 3.7 18:09:32 10° S 18:15:06 77° E 18:20:50 10° NNE
Landsat 5 3.3 18:11:12 10° NNE 18:15:20 69° ESE 18:19:17 10° S
ADEOS Rocket 4.2 18:10:00 13° ESE 18:15:21 32° ENE 18:21:00 10° N
Okean O Rocket 3.5 18:12:26 10° SSW 18:16:15 29° W 18:20:06 10° NW
Cosmos 1295 Rocket 4.4 18:13:11 10° S 18:19:15 85° E 18:25:24 10° N
IRIDIUM 114 4.3 18:15:00 10° S 18:20:11 78° E 18:25:25 10° N
NOSS 0 Rocket 4.1 18:15:04 10° SSW 18:21:14 77° WNW 18:27:25 10° NNE
SL-16 R/B 3.4 18:21:01 17° SE 18:23:19 22° E 18:27:32 10° NE
Cosmos 1328 Rocket 3.5 18:22:14 10° S 18:26:36 66° E 18:31:02 10° NNE
IRIDIUM 103 4.4 18:24:07 10° S 18:29:20 86° W 18:34:34 10° N
ISS -3.7 18:27:22 10° NW 18:30:42 68° SW 18:32:16 28° SSE
Okean-O 3.3 18:29:14 10° S 18:33:32 53° W 18:37:52 10° NNW
Cosmos 1151 Rocket 4.1 18:29:31 10° SSW 18:33:39 46° W 18:37:51 10° N
Milstar 3 Cent rocket 4.0 18:29:37 10° S 18:34:05 20° SE 18:35:31 19° SE
Okean 1 3.2 18:35:21 11° S 18:39:05 89° WNW 18:42:58 10° N
CZ-4C R/B 1.7 18:36:32 10° SSW 18:40:51 89° WNW 18:46:06 10° NNE
SWAS 4.4 18:37:27 10° S 18:41:38 62° ESE 18:45:50 10° NNE
Cosmos 1980 4.1 18:36:35 10° SSW 18:42:12 68° WNW 18:47:53 10° NNE
Lacrosse 5 rocket 2.4 18:43:24 10° WSW 18:47:21 48° NW 18:51:32 10° NNE
Cosmos 1975 4.1 18:44:49 10° NNE 18:48:01 23° ENE 18:48:27 23° E
MetOp-A 3.6 18:46:34 32° SE 18:48:05 54° ENE 18:52:08 10° N
Cosmos 2366 rocket 4.4 18:45:36 23° SSE 18:49:04 43° E 18:54:55 10° NNE
SPOT 5 3.4 18:47:08 27° SE 18:49:11 42° ENE 18:53:35 10° N
Cosmos 2278 Rocket 2.2 18:43:29 10° NNW 18:49:11 81° ENE 18:52:27 26° SSE
Nadezhda 3 Rocket 4.1 18:43:17 10° N 18:49:31 78° W 18:54:45 15° S
CZ-4C R/B 3.3 18:49:35 10° NNE 18:52:01 36° ENE 18:52:01 36° ENE
SPOT 3 Rocket 4.1 18:52:17 28° ESE 18:54:21 41° ENE 18:59:09 10° N
Cosmos 1943 Rocket 3.0 18:51:25 10° N 18:56:28 35° ENE 18:58:41 26° ESE
MOS 1 4.4 18:52:18 18° S 18:56:31 71° WSW 19:02:09 10° NNW
Cosmos 1666 Rocket 4.1 18:54:33 10° NNW 18:58:54 56° W 19:01:46 20° SSW
Cosmos 1515 Rocket 3.5 18:57:55 28° S 19:00:12 76° E 19:04:39 10° N
Cosmos 1933 Rocket 4.2 18:57:05 10° NNE 19:01:04 35° ENE 19:01:45 33° E
Cosmos 1741 Rocket 4.0 18:59:04 10° SSW 19:04:16 83° WNW 19:09:32 10° NNE
ERS-1 Rocket 3.4 19:04:17 34° ESE 19:05:57 47° ENE 19:10:46 10° N
GENESIS II 4.1 19:05:32 10° NNW 19:09:29 89° ENE 19:10:10 59° SSE
CZ-3C R/B 4.0 19:05:23 10° SW 19:11:23 33° SSE 19:47:40 10° E
CZ-3C R/B 4.0 19:05:23 10° SW 19:11:24 33° SSE 19:47:40 10° E
Ariane Rocket 2.9 19:11:51 37° SSE 19:13:55 86° ENE 19:19:02 10° NNW
Terra 2.2 19:13:37 39° ESE 19:14:38 46° ENE 19:19:09 10° N
Cosmos 2369 Rocket 4.2 19:11:31 10° NNE 19:14:40 15° NE 19:16:57 12° ENE
Cosmos 540 Rocket 4.0 19:13:06 10° NNW 19:18:07 53° WSW 19:20:32 29° SSW
Cosmos 2228 Rocket 4.5 19:19:44 24° ENE 19:19:44 24° ENE 19:22:36 10° NE
H-2A R/B 3.5 19:15:36 10° NE 19:18:16 23° ENE 19:18:16 23° ENE
Spot 2 Rocket 3.6 19:18:14 44° SE 19:19:37 61° ENE 19:24:36 10° N
Cosmos 1821 Rocket 4.4 19:22:40 37° ESE 19:23:56 41° E 19:29:39 10° NNE
Cosmos 1271 Rocket 3.2 19:20:46 10° N 19:24:12 46° ENE 19:24:12 46° ENE
Atlas Centaur 2 4.0 19:23:14 10° WSW 19:25:27 13° SSW 19:25:27 13° SSW
SME Rocket 3.6 19:24:13 41° S 19:25:47 70° WSW 19:31:48 10° NNW
USA 245 3.5 19:25:07 53° S 19:26:05 77° WSW 19:29:50 10° NNW
ATLAS 3B R/B 4.3 19:30:15 16° E 19:30:15 16° E 19:32:41 10° ENE
H-2A R/B 2.1 19:31:13 85° SW 19:31:16 86° WSW 19:35:05 10° NNW
Cosmos 1726 2.7 19:29:36 10° N 19:32:12 43° NNE 19:32:12 43° NNE
Cosmos 1727 Rocket 4.2 19:37:46 10° N 19:43:59 55° E 19:45:18 47° ESE
Resurs 01 Rocket 4.4 19:43:51 10° WSW 19:44:56 11° W 19:46:01 10° WNW
USA 281 3.7 19:40:10 10° NNE 19:46:37 60° WNW 19:53:02 10° SW
USA 267 4.2 19:41:00 10° NE 19:47:12 47° NW 19:53:24 10° WSW
Cosmos 1066 Rocket 4.2 19:51:44 54° S 19:53:11 87° E 19:59:00 10° N
OAO 3 Rocket 3.9 19:48:41 10° W 19:52:04 39° WSW 19:52:04 39° WSW
ADEOS Rocket 4.1 19:56:55 25° SSW 20:00:37 43° W 20:06:52 10° NNW
Cosmos 1943 3.9 20:04:55 39° ENE 20:04:55 39° ENE 20:09:11 10° NE
SL-16 R/B 3.1 20:02:45 16° SW 20:07:02 45° WNW 20:12:29 10° N
Cosmos 1805 4.5 20:09:56 10° NNW 20:12:44 38° NW 20:12:44 38° NW
SL-08 R/B 4.4 20:14:46 60° SSW 20:16:00 84° W 20:22:16 10° N
USA 234 3.8 20:15:27 35° E 20:17:53 52° NE 20:24:09 10° NW
CZ-2C R/B 4.0 20:15:40 10° N 20:20:07 63° WNW 20:20:07 63° WNW
Cosmos 2098 Rocket 3.9 20:17:23 10° N 20:19:55 42° N 20:19:55 42° N
ARIANE 5 R/B 3.2 20:27:54 57° N 20:27:54 57° N 20:31:28 10° NNW
SJ 16-02 2.3 20:29:22 44° NNE 20:29:22 44° NNE 20:32:23 10° NNE
Cosmos 2239 Rocket 4.4 20:28:46 66° SW 20:29:34 77° W 20:35:43 10° N
Cosmos 1733 Rocket 4.1 20:27:51 10° N 20:30:50 41° NNE 20:30:50 41° NNE
Cosmos 44 Rocket 4.5 20:28:19 10° NW 20:32:34 36° W 20:32:34 36° W
Cosmos 1943 Rocket 3.5 20:35:26 10° NW 20:40:00 27° WSW 20:40:12 27° WSW
Cosmos 1000 Rocket 4.4 20:35:34 10° N 20:41:50 78° W 20:42:10 75° SW
Cosmos 2297 3.9 20:37:43 10° NNW 20:43:00 62° W 20:43:00 62° W
Cosmos 2208 Rocket 4.2 20:38:30 10° NNW 20:43:12 69° N 20:43:12 69° N
COSMOS 2455 3.3 20:40:42 10° NNW 20:46:33 50° ENE 20:46:51 49° ENE
BREEZE-M DEB (TANK) 4.3 20:35:39 10° NW 20:46:41 56° NNE 20:47:14 53° NE
Meteor 1-12 Rocket 4.3 20:43:20 10° N 20:49:09 75° ENE 20:49:09 75° ENE
Terra 4.0 20:52:21 15° W 20:52:27 15° W 20:55:15 10° NW
H-2A R/B 3.9 20:51:23 10° NNW 20:54:59 25° WNW 20:55:14 25° WNW
Cosmos 2369 Rocket 2.3 20:53:37 10° NNW 20:58:44 69° NW 20:58:44 69° NW
Cosmos 909 Rocket 4.2 20:55:13 10° NNW 21:01:29 66° ENE 21:02:00 63° E
Cosmos 2263 4.3 20:57:03 10° NNW 21:02:07 70° N 21:02:07 70° N
Cosmos 1934 Rocket 4.1 21:03:56 63° WSW 21:04:20 64° W 21:10:41 10° N
In-Cosmos 22 4.4 21:07:28 70° N 21:07:28 70° N 21:12:24 10° N
Cosmos 1241 Rocket 4.4 21:03:57 10° NNW 21:10:14 82° NNE 21:10:14 82° NNE
Milstar 3 Cent rocket 3.8 21:03:28 10° WSW 21:11:32 55° SSE 21:29:02 10° E
ATLAS 3B R/B 2.7 21:17:25 69° WSW 21:18:09 76° WNW 21:25:22 10° NNE
Cosmos 1603 4.1 21:19:16 56° WNW 21:19:16 56° WNW 21:24:43 10° NNE
Cosmos 2100 Rocket 4.5 21:40:32 50° ENE 21:40:32 50° ENE 21:45:48 10° NNE
USA 229 DEB 4.5 21:57:57 34° E 21:57:57 34° E 22:02:23 10° NE
Milstar 3 4.3 21:40:39 10° W 21:56:31 47° SSW 21:56:31 47° SSW
USA 234 4.2 22:02:46 34° W 22:02:46 34° W 22:07:00 10° WNW
Cosmos 1833 Rocket 4.0 22:16:37 31° ENE 22:16:37 31° ENE 22:20:23 10° NE
NOSS 3-1 (A) 3.6 22:19:59 54° N 22:19:59 54° N 22:24:37 10° NNE
NOSS 3-1 (C) 4.4 22:22:43 30° WNW 22:23:15 31° NW 22:28:20 10° NNE
Resurs 1-4 Rocket 4.2 22:27:52 10° NE 22:30:49 16° E 22:30:49 16° E
Nimbus 7 Rocket 4.5 22:29:24 10° N 22:35:03 73° NW 22:35:03 73° NW
Cosmos 1459 Rocket 4.2 22:36:14 58° WNW 22:36:14 58° WNW 22:42:12 10° N
Cosmos 2061 Rocket 4.0 22:36:25 70° E 22:36:25 70° E 22:42:25 10° NNE
Cosmos 1864 Rocket 4.4 22:39:45 80° NNW 22:39:45 80° NNW 22:45:37 10° N
CZ-2D R/B 3.9 22:40:42 10° NE 22:44:38 21° E 22:44:38 21° E
ADEOS II 4.5 22:42:51 10° ENE 22:44:43 12° E 22:45:17 12° E
Cosmos 1802 Rocket 4.2 22:46:20 64° WNW 22:46:20 64° WNW 22:52:35 10° N
Meteor 1-24 Rocket 4.2 22:49:17 53° E 22:49:17 53° E 22:54:35 10° NNE
Cosmos 2082 Rocket 3.8 22:52:31 23° E 22:52:31 23° E 22:56:35 10° NE
Meteor 2-5 Rocket 4.0 22:52:32 63° E 22:52:32 63° E 22:58:05 10° NNE
Cosmos 1025 Rocket 4.4 23:11:19 33° ENE 23:11:19 33° ENE 23:14:23 10° NNE
Cosmos 1809 Rocket 4.3 23:04:49 10° N 23:10:56 80° E 23:11:16 77° ESE
Cosmos 1932 4.4 23:06:57 10° NNW 23:13:29 86° ENE 23:14:11 73° SE
Cosmos 1656 3.8 23:08:41 10° NNW 23:13:44 69° NW 23:13:44 69° NW
Cosmos 1697 Rocket 3.5 23:13:49 10° N 23:19:16 47° ENE 23:21:10 35° ESE
COSMOS 2406 3.8 23:19:50 45° ESE 23:19:57 45° ESE 23:25:18 10° NE
Cosmos 372 Rocket 4.1 23:20:56 67° NNW 23:20:56 67° NNW 23:25:40 10° NNE
IDEFIX/ARIANE 42P 3.5 23:15:51 10° NNE 23:20:42 36° E 23:21:03 36° ESE
Cosmos 1937 Rocket 3.7 23:21:09 63° NW 23:21:09 63° NW 23:26:02 10° NNE
NPP 4.1 23:18:50 10° NNE 23:24:04 49° E 23:24:21 48° ESE
Cosmos 304 Rocket 4.4 23:27:05 50° NW 23:27:05 50° NW 23:31:03 10° N
Cosmos 1898 Rocket 4.3 23:26:39 40° WNW 23:26:39 40° WNW 23:31:21 10° N
Meteor 2-15 4.4 23:31:29 61° SE 23:32:21 70° E 23:38:22 10° NNE
Iridium 4 Rocket 4.1 23:33:30 48° ESE 23:34:28 54° E 23:40:05 10° N
Cosmos 1867 4.2 23:35:42 44° ESE 23:35:49 44° ESE 23:40:59 10° NE
Cosmos 1680 Rocket 3.4 23:33:00 10° NNW 23:38:06 84° NW 23:38:06 84° NW
Tsikada Rocket 4.2 23:32:08 10° NNW 23:38:18 53° W 23:38:32 53° W
Meteor 2-21 Rocket 4.4 23:32:42 10° N 23:38:47 76° E 23:40:04 56° SSE
Cosmos 2233 Rocket 4.4 23:39:13 44° W 23:39:39 45° W 23:45:42 10° N
DELTA 2 R/B (1) 3.8 23:38:24 49° WNW 23:39:46 67° N 23:45:19 10° ENE
Cosmos 2360 4.1 23:35:01 10° NNW 23:40:46 83° ENE 23:41:40 64° SE
Cosmos 2285 Rocket 4.3 23:35:44 10° NNW 23:41:43 48° W 23:41:43 48° W
Cosmos 1408 4.0 23:51:17 33° NE 23:51:17 33° NE 23:53:39 10° NNE
